Wetterdaten: Sonntag, 19.02.2017
Datum Zeit Temp. A. Feuchte A. Luftdruck Regen Wind Richtung Richtung Sonnenschein UV Solar Windben
19.02.2017 00:00 1,2 C 84 % 1024,5 hPa 0,0 mm 0,0 km/h (0 Bft) N 0 0 min 0 UV-I 0 W/m 0,0 km/h (0 Bft)
19.02.2017 00:10 1,2 C 84 % 1024,6 hPa 0,0 mm 0,0 km/h (0 Bft) N 0 0 min 0 UV-I 0 W/m 0,0 km/h (0 Bft)
19.02.2017 00:20 1,1 C 85 % 1024,5 hPa 0,0 mm 0,0 km/h (0 Bft) N 0 0 min 0 UV-I 0 W/m 0,0 km/h (0 Bft)
19.02.2017 00:30 1,1 C 85 % 1024,4 hPa 0,0 mm 0,0 km/h (0 Bft) N 0 0 min 0 UV-I 0 W/m 0,0 km/h (0 Bft)
19.02.2017 00:40 0,9 C 85 % 1024,4 hPa 0,0 mm 0,0 km/h (0 Bft) N 0 0 min 0 UV-I 0 W/m 0,0 km/h (0 Bft)
19.02.2017 00:50 0,8 C 85 % 1024,4 hPa 0,0 mm 0,0 km/h (0 Bft) N 0 0 min 0 UV-I 0 W/m 0,0 km/h (0 Bft)
19.02.2017 01:00 0,7 C 85 % 1024,2 hPa 0,0 mm 0,0 km/h (0 Bft) N 0 0 min 0 UV-I 0 W/m 0,0 km/h (0 Bft)
19.02.2017 01:10 0,7 C 86 % 1024,2 hPa 0,0 mm 0,0 km/h (0 Bft) N 0 0 min 0 UV-I 0 W/m 0,0 km/h (0 Bft)
19.02.2017 01:20 0,6 C 86 % 1024,1 hPa 0,0 mm 0,0 km/h (0 Bft) N 0 0 min 0 UV-I 0 W/m 0,0 km/h (0 Bft)
19.02.2017 01:30 0,6 C 86 % 1024,1 hPa 0,0 mm 0,0 km/h (0 Bft) N 0 0 min 0 UV-I 0 W/m 0,0 km/h (0 Bft)
19.02.2017 01:40 0,4 C 86 % 1023,9 hPa 0,0 mm 0,0 km/h (0 Bft) N 0 0 min 0 UV-I 0 W/m 0,0 km/h (0 Bft)
19.02.2017 01:50 0,3 C 86 % 1023,9 hPa 0,0 mm 0,0 km/h (0 Bft) N 0 0 min 0 UV-I 0 W/m 0,0 km/h (0 Bft)
19.02.2017 02:00 0,2 C 86 % 1023,8 hPa 0,0 mm 0,0 km/h (0 Bft) N 0 0 min 0 UV-I 0 W/m 0,0 km/h (0 Bft)
19.02.2017 02:10 0,1 C 86 % 1023,7 hPa 0,0 mm 0,0 km/h (0 Bft) N 0 0 min 0 UV-I 0 W/m 0,0 km/h (0 Bft)
19.02.2017 02:20 0,1 C 86 % 1023,6 hPa 0,0 mm 0,0 km/h (0 Bft) N 0 0 min 0 UV-I 0 W/m 0,0 km/h (0 Bft)
19.02.2017 02:30 -0,1 C 86 % 1023,6 hPa 0,0 mm 0,0 km/h (0 Bft) N 0 0 min 0 UV-I 0 W/m 0,0 km/h (0 Bft)
19.02.2017 02:40 -0,1 C 86 % 1023,7 hPa 0,0 mm 0,0 km/h (0 Bft) N 0 0 min 0 UV-I 0 W/m 0,0 km/h (0 Bft)
19.02.2017 02:50 -0,3 C 87 % 1023,6 hPa 0,0 mm 0,0 km/h (0 Bft) N 0 0 min 0 UV-I 0 W/m 0,0 km/h (0 Bft)
19.02.2017 03:00 -0,4 C 86 % 1023,5 hPa 0,0 mm 0,0 km/h (0 Bft) N 0 0 min 0 UV-I 0 W/m 0,0 km/h (0 Bft)
19.02.2017 03:10 -0,5 C 87 % 1023,5 hPa 0,0 mm 0,0 km/h (0 Bft) N 0 0 min 0 UV-I 0 W/m 0,0 km/h (0 Bft)
19.02.2017 03:20 -0,6 C 87 % 1023,2 hPa 0,0 mm 0,0 km/h (0 Bft) N 0 0 min 0 UV-I 0 W/m 0,0 km/h (0 Bft)
19.02.2017 03:30 -0,7 C 87 % 1023,1 hPa 0,0 mm 0,0 km/h (0 Bft) N 0 0 min 0 UV-I 0 W/m 0,0 km/h (0 Bft)
19.02.2017 03:40 -0,8 C 87 % 1023,1 hPa 0,0 mm 0,0 km/h (0 Bft) N 0 0 min 0 UV-I 0 W/m 0,0 km/h (0 Bft)
19.02.2017 03:50 -0,9 C 87 % 1023,0 hPa 0,0 mm 0,0 km/h (0 Bft) N 0 0 min 0 UV-I 0 W/m 0,0 km/h (0 Bft)
19.02.2017 04:00 -1,1 C 87 % 1022,8 hPa 0,0 mm 0,0 km/h (0 Bft) N 0 0 min 0 UV-I 0 W/m 0,0 km/h (0 Bft)
19.02.2017 04:10 -1,2 C 87 % 1022,6 hPa 0,0 mm 0,0 km/h (0 Bft) N 0 0 min 0 UV-I 0 W/m 0,0 km/h (0 Bft)
19.02.2017 04:20 -1,2 C 87 % 1022,5 hPa 0,0 mm 0,0 km/h (0 Bft) N 0 0 min 0 UV-I 0 W/m 0,0 km/h (0 Bft)
19.02.2017 04:30 -1,3 C 87 % 1022,4 hPa 0,0 mm 0,0 km/h (0 Bft) N 0 0 min 0 UV-I 0 W/m 0,0 km/h (0 Bft)
19.02.2017 04:40 -1,3 C 88 % 1022,3 hPa 0,0 mm 0,0 km/h (0 Bft) N 0 0 min 0 UV-I 0 W/m 0,0 km/h (0 Bft)
19.02.2017 04:50 -1,1 C 89 % 1022,3 hPa 0,0 mm 0,0 km/h (0 Bft) W 270 0 min 0 UV-I 0 W/m 3,2 km/h (1 Bft)
19.02.2017 05:00 -0,7 C 89 % 1022,2 hPa 0,0 mm 0,0 km/h (0 Bft) W 270 0 min 0 UV-I 0 W/m 3,2 km/h (1 Bft)
19.02.2017 05:10 -0,1 C 89 % 1022,1 hPa 0,0 mm 0,0 km/h (0 Bft) W 270 0 min 0 UV-I 0 W/m 4,8 km/h (1 Bft)
19.02.2017 05:20 0,4 C 90 % 1022,0 hPa 0,0 mm 0,0 km/h (0 Bft) N 0 0 min 0 UV-I 0 W/m 0,0 km/h (0 Bft)
19.02.2017 05:30 0,8 C 90 % 1021,9 hPa 0,0 mm 0,0 km/h (0 Bft) N 0 0 min 0 UV-I 0 W/m 0,0 km/h (0 Bft)
19.02.2017 05:40 1,1 C 90 % 1021,9 hPa 0,0 mm 0,0 km/h (0 Bft) N 0 0 min 0 UV-I 0 W/m 0,0 km/h (0 Bft)
19.02.2017 05:50 1,2 C 90 % 1021,8 hPa 0,0 mm 0,0 km/h (0 Bft) N 0 0 min 0 UV-I 0 W/m 0,0 km/h (0 Bft)
19.02.2017 06:00 1,3 C 90 % 1021,7 hPa 0,0 mm 0,0 km/h (0 Bft) N 0 0 min 0 UV-I 0 W/m 0,0 km/h (0 Bft)
19.02.2017 06:10 1,3 C 90 % 1021,5 hPa 0,0 mm 0,0 km/h (0 Bft) N 0 0 min 0 UV-I 0 W/m 0,0 km/h (0 Bft)
19.02.2017 06:20 1,3 C 90 % 1021,5 hPa 0,0 mm 0,0 km/h (0 Bft) N 0 0 min 0 UV-I 0 W/m 0,0 km/h (0 Bft)
19.02.2017 06:30 1,3 C 90 % 1021,3 hPa 0,0 mm 0,0 km/h (0 Bft) N 0 0 min 0 UV-I 0 W/m 0,0 km/h (0 Bft)
19.02.2017 06:40 1,2 C 90 % 1021,4 hPa 0,0 mm 0,0 km/h (0 Bft) N 0 0 min 0 UV-I 0 W/m 0,0 km/h (0 Bft)
19.02.2017 06:50 1,1 C 90 % 1021,5 hPa 0,0 mm 0,0 km/h (0 Bft) N 0 0 min 0 UV-I 0 W/m 0,0 km/h (0 Bft)
19.02.2017 07:00 1,1 C 89 % 1021,4 hPa 0,0 mm 0,0 km/h (0 Bft) N 0 0 min 0 UV-I 0 W/m 0,0 km/h (0 Bft)
19.02.2017 07:10 0,9 C 90 % 1021,5 hPa 0,0 mm 0,0 km/h (0 Bft) N 0 0 min 0 UV-I 0 W/m 0,0 km/h (0 Bft)
19.02.2017 07:20 0,8 C 90 % 1021,5 hPa 0,0 mm 0,0 km/h (0 Bft) N 0 0 min 0 UV-I 0 W/m 0,0 km/h (0 Bft)
19.02.2017 07:30 0,8 C 90 % 1021,3 hPa 0,0 mm 0,0 km/h (0 Bft) N 0 0 min 0 UV-I 0 W/m 0,0 km/h (0 Bft)
19.02.2017 07:40 0,7 C 90 % 1021,3 hPa 0,0 mm 0,0 km/h (0 Bft) N 0 0 min 0 UV-I 5 W/m 0,0 km/h (0 Bft)
19.02.2017 07:50 0,8 C 90 % 1021,3 hPa 0,0 mm 0,0 km/h (0 Bft) N 0 0 min 0 UV-I 5 W/m 0,0 km/h (0 Bft)
19.02.2017 08:00 0,8 C 90 % 1021,3 hPa 0,0 mm 0,0 km/h (0 Bft) N 0 0 min 0 UV-I 9 W/m 0,0 km/h (0 Bft)
19.02.2017 08:10 0,9 C 90 % 1021,3 hPa 0,0 mm 0,0 km/h (0 Bft) N 0 0 min 0 UV-I 18 W/m 0,0 km/h (0 Bft)
19.02.2017 08:20 1,1 C 90 % 1021,3 hPa 0,0 mm 0,0 km/h (0 Bft) N 0 0 min 0 UV-I 19 W/m 0,0 km/h (0 Bft)
19.02.2017 08:30 1,3 C 91 % 1021,2 hPa 0,0 mm 0,0 km/h (0 Bft) W 270 0 min 0 UV-I 26 W/m 1,6 km/h (1 Bft)
19.02.2017 08:40 1,6 C 91 % 1021,2 hPa 0,0 mm 0,0 km/h (0 Bft) W 270 0 min 0 UV-I 46 W/m 3,2 km/h (1 Bft)
19.02.2017 08:50 1,9 C 91 % 1021,5 hPa 0,0 mm 0,0 km/h (0 Bft) N 0 0 min 0 UV-I 53 W/m 0,0 km/h (0 Bft)
19.02.2017 09:00 2,3 C 91 % 1021,4 hPa 0,0 mm 0,0 km/h (0 Bft) W 270 0 min 0 UV-I 47 W/m 1,6 km/h (1 Bft)
19.02.2017 09:10 2,6 C 91 % 1021,2 hPa 0,0 mm 0,0 km/h (0 Bft) W 270 0 min 0 UV-I 42 W/m 6,4 km/h (2 Bft)
19.02.2017 09:20 2,9 C 91 % 1021,3 hPa 0,0 mm 0,0 km/h (0 Bft) W 270 0 min 0 UV-I 63 W/m 1,6 km/h (1 Bft)
19.02.2017 09:30 3,2 C 91 % 1021,1 hPa 0,0 mm 1,6 km/h (1 Bft) W 270 0 min 0 UV-I 74 W/m 8,0 km/h (2 Bft)
19.02.2017 09:40 3,5 C 92 % 1021,0 hPa 0,0 mm 1,6 km/h (1 Bft) W-SW 247 0 min 1 UV-I 91 W/m 9,7 km/h (2 Bft)
19.02.2017 09:50 3,8 C 92 % 1021,0 hPa 0,0 mm 1,6 km/h (1 Bft) W-SW 247 0 min 1 UV-I 120 W/m 9,7 km/h (2 Bft)
19.02.2017 10:00 4,2 C 92 % 1020,9 hPa 0,0 mm 3,2 km/h (1 Bft) W-SW 247 10 min 1 UV-I 200 W/m 11,3 km/h (2 Bft)
19.02.2017 10:10 4,9 C 91 % 1021,0 hPa 0,0 mm 3,2 km/h (1 Bft) W-SW 247 0 min 1 UV-I 178 W/m 9,7 km/h (2 Bft)
19.02.2017 10:20 5,3 C 89 % 1021,0 hPa 0,0 mm 3,2 km/h (1 Bft) W-SW 247 0 min 1 UV-I 139 W/m 16,1 km/h (3 Bft)
19.02.2017 10:30 5,6 C 88 % 1021,0 hPa 0,0 mm 3,2 km/h (1 Bft) SW 225 0 min 1 UV-I 132 W/m 17,7 km/h (3 Bft)
19.02.2017 10:40 5,8 C 87 % 1020,9 hPa 0,0 mm 4,8 km/h (1 Bft) W-SW 247 0 min 1 UV-I 139 W/m 17,7 km/h (3 Bft)
19.02.2017 10:50 6,0 C 85 % 1020,8 hPa 0,0 mm 3,2 km/h (1 Bft) W-SW 247 0 min 1 UV-I 109 W/m 14,5 km/h (3 Bft)
19.02.2017 11:00 6,1 C 84 % 1020,7 hPa 0,0 mm 3,2 km/h (1 Bft) SW 225 0 min 1 UV-I 90 W/m 11,3 km/h (2 Bft)
19.02.2017 11:10 6,2 C 82 % 1020,6 hPa 0,0 mm 4,8 km/h (1 Bft) SW 225 0 min 1 UV-I 90 W/m 16,1 km/h (3 Bft)
19.02.2017 11:20 6,2 C 81 % 1020,6 hPa 0,0 mm 1,6 km/h (1 Bft) SW 225 0 min 1 UV-I 102 W/m 11,3 km/h (2 Bft)
19.02.2017 11:30 6,3 C 81 % 1020,5 hPa 0,0 mm 1,6 km/h (1 Bft) SW 225 0 min 1 UV-I 116 W/m 9,7 km/h (2 Bft)
19.02.2017 11:40 6,5 C 80 % 1020,4 hPa 0,0 mm 3,2 km/h (1 Bft) SW 225 0 min 1 UV-I 156 W/m 11,3 km/h (2 Bft)
19.02.2017 11:50 6,7 C 79 % 1020,4 hPa 0,0 mm 3,2 km/h (1 Bft) W-SW 247 0 min 1 UV-I 153 W/m 19,3 km/h (3 Bft)
19.02.2017 12:00 6,8 C 78 % 1020,3 hPa 0,0 mm 3,2 km/h (1 Bft) W-SW 247 0 min 1 UV-I 84 W/m 16,1 km/h (3 Bft)
19.02.2017 12:10 6,9 C 78 % 1020,1 hPa 0,0 mm 3,2 km/h (1 Bft) W-SW 247 0 min 1 UV-I 62 W/m 14,5 km/h (3 Bft)
19.02.2017 12:20 6,9 C 79 % 1019,9 hPa 0,3 mm 3,2 km/h (1 Bft) SW 225 0 min 1 UV-I 151 W/m 11,3 km/h (2 Bft)
19.02.2017 12:30 7,1 C 79 % 1019,7 hPa 0,0 mm 3,2 km/h (1 Bft) SW 225 10 min 1 UV-I 311 W/m 19,3 km/h (3 Bft)
19.02.2017 12:40 7,6 C 79 % 1019,5 hPa 0,0 mm 4,8 km/h (1 Bft) SW 225 10 min 2 UV-I 601 W/m 17,7 km/h (3 Bft)
19.02.2017 12:50 8,2 C 77 % 1019,5 hPa 0,0 mm 6,4 km/h (2 Bft) SW 225 10 min 1 UV-I 294 W/m 17,7 km/h (3 Bft)
19.02.2017 13:00 8,2 C 75 % 1019,2 hPa 0,0 mm 4,8 km/h (1 Bft) SW 225 0 min 1 UV-I 81 W/m 17,7 km/h (3 Bft)
19.02.2017 13:10 8,0 C 75 % 1019,2 hPa 0,0 mm 4,8 km/h (1 Bft) SW 225 0 min 1 UV-I 76 W/m 17,7 km/h (3 Bft)
19.02.2017 13:20 7,9 C 75 % 1019,1 hPa 0,0 mm 4,8 km/h (1 Bft) SW 225 0 min 1 UV-I 70 W/m 20,9 km/h (4 Bft)
19.02.2017 13:30 7,8 C 76 % 1019,1 hPa 0,0 mm 1,6 km/h (1 Bft) W-SW 247 0 min 0 UV-I 49 W/m 16,1 km/h (3 Bft)
19.02.2017 13:40 7,8 C 77 % 1019,0 hPa 0,0 mm 1,6 km/h (1 Bft) SW 225 0 min 0 UV-I 37 W/m 12,9 km/h (3 Bft)
19.02.2017 13:50 7,7 C 77 % 1018,8 hPa 0,0 mm 1,6 km/h (1 Bft) W-SW 247 0 min 0 UV-I 35 W/m 17,7 km/h (3 Bft)
19.02.2017 14:00 7,6 C 77 % 1018,6 hPa 0,0 mm 1,6 km/h (1 Bft) W-SW 247 0 min 0 UV-I 44 W/m 11,3 km/h (2 Bft)
19.02.2017 14:10 7,5 C 78 % 1018,7 hPa 0,0 mm 4,8 km/h (1 Bft) W-SW 247 0 min 0 UV-I 39 W/m 19,3 km/h (3 Bft)
19.02.2017 14:20 7,4 C 79 % 1018,8 hPa 0,0 mm 3,2 km/h (1 Bft) W-SW 247 0 min 0 UV-I 35 W/m 17,7 km/h (3 Bft)
19.02.2017 14:30 7,3 C 80 % 1018,8 hPa 0,3 mm 1,6 km/h (1 Bft) SW 225 0 min 0 UV-I 35 W/m 14,5 km/h (3 Bft)
19.02.2017 14:40 7,2 C 81 % 1018,7 hPa 0,0 mm 0,0 km/h (0 Bft) W 270 0 min 0 UV-I 32 W/m 9,7 km/h (2 Bft)
19.02.2017 14:50 7,0 C 83 % 1018,8 hPa 0,0 mm 1,6 km/h (1 Bft) W 270 0 min 0 UV-I 37 W/m 11,3 km/h (2 Bft)
19.02.2017 15:00 6,8 C 84 % 1018,8 hPa 0,3 mm 4,8 km/h (1 Bft) W 270 0 min 0 UV-I 23 W/m 16,1 km/h (3 Bft)
19.02.2017 15:10 6,6 C 85 % 1018,9 hPa 0,0 mm 1,6 km/h (1 Bft) W 270 0 min 0 UV-I 28 W/m 9,7 km/h (2 Bft)
19.02.2017 15:20 6,4 C 86 % 1018,9 hPa 0,0 mm 1,6 km/h (1 Bft) W 270 0 min 0 UV-I 19 W/m 9,7 km/h (2 Bft)
19.02.2017 15:30 6,3 C 86 % 1018,9 hPa 0,3 mm 0,0 km/h (0 Bft) W 270 0 min 0 UV-I 19 W/m 6,4 km/h (2 Bft)
19.02.2017 15:40 6,3 C 87 % 1019,0 hPa 0,3 mm 1,6 km/h (1 Bft) W 270 0 min 0 UV-I 14 W/m 8,0 km/h (2 Bft)
19.02.2017 15:50 6,2 C 87 % 1019,1 hPa 0,0 mm 1,6 km/h (1 Bft) W 270 0 min 0 UV-I 25 W/m 9,7 km/h (2 Bft)
19.02.2017 16:00 6,2 C 88 % 1019,0 hPa 0,0 mm 1,6 km/h (1 Bft) W 270 0 min 0 UV-I 28 W/m 8,0 km/h (2 Bft)
19.02.2017 16:10 6,1 C 88 % 1019,1 hPa 0,0 mm 1,6 km/h (1 Bft) W-SW 247 0 min 0 UV-I 16 W/m 11,3 km/h (2 Bft)
19.02.2017 16:20 6,1 C 89 % 1019,1 hPa 0,3 mm 1,6 km/h (1 Bft) W-SW 247 0 min 0 UV-I 14 W/m 9,7 km/h (2 Bft)
19.02.2017 16:30 6,1 C 89 % 1019,0 hPa 0,0 mm 1,6 km/h (1 Bft) W-SW 247 0 min 0 UV-I 16 W/m 9,7 km/h (2 Bft)
19.02.2017 16:40 6,1 C 89 % 1018,9 hPa 0,0 mm 1,6 km/h (1 Bft) W-SW 247 0 min 0 UV-I 16 W/m 9,7 km/h (2 Bft)
19.02.2017 16:50 6,1 C 90 % 1019,0 hPa 0,0 mm 1,6 km/h (1 Bft) W-SW 247 0 min 0 UV-I 9 W/m 16,1 km/h (3 Bft)
19.02.2017 17:00 6,0 C 90 % 1018,9 hPa 0,0 mm 0,0 km/h (0 Bft) W-SW 247 0 min 0 UV-I 5 W/m 8,0 km/h (2 Bft)
19.02.2017 17:10 6,0 C 90 % 1018,9 hPa 0,0 mm 1,6 km/h (1 Bft) W-SW 247 0 min 0 UV-I 5 W/m 9,7 km/h (2 Bft)
19.02.2017 17:20 6,0 C 90 % 1018,9 hPa 0,0 mm 1,6 km/h (1 Bft) W-SW 247 0 min 0 UV-I 0 W/m 9,7 km/h (2 Bft)
19.02.2017 17:30 6,0 C 90 % 1018,8 hPa 0,0 mm 1,6 km/h (1 Bft) W-SW 247 0 min 0 UV-I 0 W/m 11,3 km/h (2 Bft)
19.02.2017 17:40 6,0 C 91 % 1019,0 hPa 0,0 mm 3,2 km/h (1 Bft) W-SW 247 0 min 0 UV-I 0 W/m 17,7 km/h (3 Bft)
19.02.2017 17:50 6,1 C 91 % 1019,1 hPa 0,0 mm 1,6 km/h (1 Bft) W-SW 247 0 min 0 UV-I 0 W/m 9,7 km/h (2 Bft)
19.02.2017 18:00 6,1 C 91 % 1019,2 hPa 0,0 mm 1,6 km/h (1 Bft) W-SW 247 0 min 0 UV-I 0 W/m 14,5 km/h (3 Bft)
19.02.2017 18:10 6,1 C 91 % 1019,3 hPa 0,0 mm 1,6 km/h (1 Bft) W-SW 247 0 min 0 UV-I 0 W/m 11,3 km/h (2 Bft)
19.02.2017 18:20 6,1 C 91 % 1019,4 hPa 0,0 mm 3,2 km/h (1 Bft) W-SW 247 0 min 0 UV-I 0 W/m 16,1 km/h (3 Bft)
19.02.2017 18:30 6,1 C 91 % 1019,4 hPa 0,0 mm 3,2 km/h (1 Bft) W 270 0 min 0 UV-I 0 W/m 14,5 km/h (3 Bft)
19.02.2017 18:40 6,1 C 91 % 1019,4 hPa 0,0 mm 3,2 km/h (1 Bft) W 270 0 min 0 UV-I 0 W/m 11,3 km/h (2 Bft)
19.02.2017 18:50 6,1 C 91 % 1019,5 hPa 0,3 mm 1,6 km/h (1 Bft) W 270 0 min 0 UV-I 0 W/m 11,3 km/h (2 Bft)
19.02.2017 19:00 6,0 C 91 % 1019,5 hPa 0,0 mm 1,6 km/h (1 Bft) W-SW 247 0 min 0 UV-I 0 W/m 9,7 km/h (2 Bft)
19.02.2017 19:10 6,0 C 92 % 1019,7 hPa 0,3 mm 1,6 km/h (1 Bft) SW 225 0 min 0 UV-I 0 W/m 16,1 km/h (3 Bft)
19.02.2017 19:20 6,0 C 92 % 1019,8 hPa 0,3 mm 1,6 km/h (1 Bft) SW 225 0 min 0 UV-I 0 W/m 9,7 km/h (2 Bft)
19.02.2017 19:30 6,0 C 92 % 1019,7 hPa 0,0 mm 1,6 km/h (1 Bft) W-SW 247 0 min 0 UV-I 0 W/m 11,3 km/h (2 Bft)
19.02.2017 19:40 6,0 C 92 % 1019,8 hPa 0,0 mm 1,6 km/h (1 Bft) W-SW 247 0 min 0 UV-I 0 W/m 11,3 km/h (2 Bft)
19.02.2017 19:50 6,0 C 92 % 1019,9 hPa 0,0 mm 0,0 km/h (0 Bft) W 270 0 min 0 UV-I 0 W/m 6,4 km/h (2 Bft)
19.02.2017 20:00 5,9 C 92 % 1019,8 hPa 0,0 mm 1,6 km/h (1 Bft) W-SW 247 0 min 0 UV-I 0 W/m 9,7 km/h (2 Bft)
19.02.2017 20:10 5,9 C 92 % 1019,7 hPa 0,0 mm 0,0 km/h (0 Bft) N 0 0 min 0 UV-I 0 W/m 0,0 km/h (0 Bft)
19.02.2017 20:20 5,9 C 92 % 1019,7 hPa 0,0 mm 1,6 km/h (1 Bft) W-SW 247 0 min 0 UV-I 0 W/m 9,7 km/h (2 Bft)
19.02.2017 20:30 5,9 C 92 % 1019,6 hPa 0,0 mm 0,0 km/h (0 Bft) W-SW 247 0 min 0 UV-I 0 W/m 4,8 km/h (1 Bft)
19.02.2017 20:40 5,9 C 92 % 1019,8 hPa 0,0 mm 0,0 km/h (0 Bft) N 0 0 min 0 UV-I 0 W/m 0,0 km/h (0 Bft)
19.02.2017 20:50 5,9 C 92 % 1019,7 hPa 0,3 mm 0,0 km/h (0 Bft) N 0 0 min 0 UV-I 0 W/m 0,0 km/h (0 Bft)
19.02.2017 21:00 5,9 C 92 % 1019,7 hPa 0,0 mm 0,0 km/h (0 Bft) W-SW 247 0 min 0 UV-I 0 W/m 6,4 km/h (2 Bft)
19.02.2017 21:10 5,9 C 92 % 1019,8 hPa 0,0 mm 0,0 km/h (0 Bft) W-SW 247 0 min 0 UV-I 0 W/m 4,8 km/h (1 Bft)
19.02.2017 21:20 5,9 C 92 % 1019,8 hPa 0,0 mm 0,0 km/h (0 Bft) W-SW 247 0 min 0 UV-I 0 W/m 6,4 km/h (2 Bft)
19.02.2017 21:30 5,9 C 92 % 1019,8 hPa 0,0 mm 1,6 km/h (1 Bft) W-SW 247 0 min 0 UV-I 0 W/m 9,7 km/h (2 Bft)
19.02.2017 21:40 5,9 C 92 % 1019,9 hPa 0,0 mm 1,6 km/h (1 Bft) W-SW 247 0 min 0 UV-I 0 W/m 8,0 km/h (2 Bft)
19.02.2017 21:50 5,9 C 92 % 1019,8 hPa 0,0 mm 1,6 km/h (1 Bft) W-SW 247 0 min 0 UV-I 0 W/m 8,0 km/h (2 Bft)
19.02.2017 22:00 6,0 C 93 % 1019,9 hPa 0,0 mm 1,6 km/h (1 Bft) W-SW 247 0 min 0 UV-I 0 W/m 9,7 km/h (2 Bft)
19.02.2017 22:10 6,0 C 93 % 1019,9 hPa 0,0 mm 1,6 km/h (1 Bft) W-SW 247 0 min 0 UV-I 0 W/m 11,3 km/h (2 Bft)
19.02.2017 22:20 6,1 C 93 % 1020,0 hPa 0,0 mm 1,6 km/h (1 Bft) W-SW 247 0 min 0 UV-I 0 W/m 11,3 km/h (2 Bft)
19.02.2017 22:30 6,1 C 93 % 1019,8 hPa 0,0 mm 0,0 km/h (0 Bft) W-SW 247 0 min 0 UV-I 0 W/m 8,0 km/h (2 Bft)
19.02.2017 22:40 6,1 C 93 % 1019,8 hPa 0,0 mm 1,6 km/h (1 Bft) W-SW 247 0 min 0 UV-I 0 W/m 6,4 km/h (2 Bft)
19.02.2017 22:50 6,1 C 93 % 1019,7 hPa 0,0 mm 0,0 km/h (0 Bft) W-SW 247 0 min 0 UV-I 0 W/m 6,4 km/h (2 Bft)
19.02.2017 23:00 6,1 C 93 % 1019,6 hPa 0,0 mm 0,0 km/h (0 Bft) W-SW 247 0 min 0 UV-I 0 W/m 8,0 km/h (2 Bft)
19.02.2017 23:10 6,1 C 93 % 1019,5 hPa 0,0 mm 0,0 km/h (0 Bft) W-SW 247 0 min 0 UV-I 0 W/m 6,4 km/h (2 Bft)
19.02.2017 23:20 6,1 C 93 % 1019,5 hPa 0,0 mm 0,0 km/h (0 Bft) W-SW 247 0 min 0 UV-I 0 W/m 8,0 km/h (2 Bft)
19.02.2017 23:30 6,1 C 93 % 1019,5 hPa 0,0 mm 1,6 km/h (1 Bft) W-SW 247 0 min 0 UV-I 0 W/m 9,7 km/h (2 Bft)
19.02.2017 23:40 6,1 C 93 % 1019,5 hPa 0,0 mm 0,0 km/h (0 Bft) W-SW 247 0 min 0 UV-I 0 W/m 8,0 km/h (2 Bft)
19.02.2017 23:50 6,1 C 93 % 1019,5 hPa 0,0 mm 1,6 km/h (1 Bft) W-SW 247 0 min 0 UV-I 0 W/m 8,0 km/h (2 Bft)
_ Min-Zeit 04:20 13:00 14:00 - 00:00 - - - - - 00:00
Minimum _ -1,3 C 75 % 1018,6 hPa - 0,0 km/h (0 Bft) - - - - - 0,0 km/h (0 Bft)
_ Max-Zeit 12:50 22:00 00:10 12:20 12:50 - - 10:00 12:40 12:40 13:20
Maximum _ 8,2 C 93 % 1024,6 hPa 0,3 mm 6,4 km/h
SW (2 Bft)
- - 10 min 2 UV-I 601 W/m 20,9 km/h
SW (4 Bft)
Durchschnitt _ 4,0 C 88 % 1020,8 hPa #2,5 mm 1,2 km/h (1 Bft) W-SW - #40 min. 1 UV-I 78 W/m 7,0 km/h (2 Bft)